CAPE
2378 2391 2449 2424 2352 2020 1880 2285 1730 1875 1610 1531 1393 1333 1141 1182 1067 855 792 1228 1304 1363 1934 1973 1916 1922 2131 2357 2253 1559 1441 1229 1230 1288 1538 1796 1962 2139 2310 2392 2456 2518 2495 2488 2527 2578 2598 2676 2815 2949 3012 3042 2954 3069 3102 3123 3107 3082 3071 3102 3111 3119 2781 2592 2461 2373 2206 2006 1682 1689 1536 1502 1417 1157
2308 2220 2310 2306 2245 2180 2033 1750 1688 2064 1487 1350 1228 1426 1472 1415 1271 1585 1517 1596 1719 1749 1958 2172 2078 2081 2146 2318 2541 2541 2530 2480 2232 2180 2230 2376 2550 2653 2688 2694 2673 2613 2532 2576 2655 2688 2718 2778 2895 2986 3040 2986 3143 3330 3461 3531 3483 3399 3391 3402 3365 3292 3229 3163 2903 2679 2689 2486 2373 1924 1646 1606 1563 1499
2031 2111 2137 2214 2180 2324 2143 1724 1736 1953 2169 1973 1864 1864 1956 2081 2206 2158 2099 1967 1982 1991 1991 1999 2156 2215 2271 2415 2595 2649 2662 2665 2668 2708 2746 2852 2854 2814 2727 2656 2669 2695 2706 2711 2744 2846 2872 2770 2964 3145 3286 3409 3498 3629 3728 3724 3659 3639 3603 3543 3486 3489 3438 3405 3288 3156 3036 2882 2585 2435 2076 1816 1656 1532
2193 2187 2268 2317 2209 2452 2481 2170 2099 2012 2566 2367 1961 1971 2257 2262 2244 2200 2218 2040 2001 2063 2119 2074 2171 2277 2422 2564 2677 2789 2839 2788 2790 2832 2843 2873 2974 3007 2980 2971 3087 3194 3186 3090 3016 3024 3030 2986 3166 3366 3471 3593 3716 3879 3870 3867 3820 3731 3790 3699 3574 3478 3444 3438 3348 3202 3066 2983 2929 2673 2209 2082 1767 1650
2427 2132 2098 2100 2024 2008 2212 2156 2191 2218 2030 2354 2193 2052 2079 2116 2170 2151 2242 2279 2113 2080 2144 2240 2348 2462 2549 2699 2824 2885 2890 2826 2832 2918 3034 3111 3136 3123 3063 3115 3166 3241 3301 3316 3294 3272 3063 3275 3427 3514 3678 3774 4053 4087 3995 3595 3587 3563 3530 3448 3396 3391 3322 3275 3174 3023 2876 2774 2823 2807 2760 2549 2303 1871
2636 2446 2188 2142 2215 2188 2077 1784 1954 2071 2076 2056 2224 2268 2162 2179 2193 2267 2267 2212 2196 2218 2241 2328 2392 2512 2632 2863 2930 2954 2896 2885 2956 3114 3210 3165 3210 3205 3192 3232 3290 3332 3394 3416 3434 3444 3327 3502 3701 3853 4036 4234 4149 3756 3536 3462 3488 3510 3500 3363 3276 2988 2652 2548 2409 2290 2210 2244 2274 2365 2419 2421 2462 2192
2346 2448 2436 2448 2489 2505 2377 2004 1841 2000 2164 2265 2235 2173 2219 2305 2340 2274 2339 2234 2267 2307 2323 2360 2487 2615 2778 2882 2906 2814 2942 3090 3220 3321 3396 3418 3345 3330 3342 3367 3408 3493 3555 3569 3477 3509 3672 3848 4010 4297 4326 4018 3624 3492 3530 3600 3606 3514 3253 2617 2146 1973 1813 1681 1583 1479 1373 1426 1510 1825 2064 2120 2187 2264
2153 2210 2335 2458 2610 2704 2648 2318 2077 2046 2198 2256 2291 2290 2272 2285 2338 2373 2359 2476 2382 2356 2395 2458 2577 2762 2842 2713 2922 3084 3188 3323 3463 3476 3415 3359 3327 3358 3441 3530 3534 3455 3408 3590 3720 3859 4033 4124 4308 4290 4026 3717 3554 3540 3572 3597 3444 2745 1871 1621 1468 1246 1038 1078 1134 1184 1139 1066 1140 1324 1538 1736 1820 1948
2177 2158 2148 2158 2234 2455 2592 2586 2310 2322 2392 2403 2414 2395 2296 2178 2277 2390 2384 2381 2472 2525 2555 2572 2510 2639 2822 2941 3082 3284 3453 3481 3485 3478 3363 3314 3311 3328 3350 3482 3545 3528 3631 3716 3895 4094 4146 4232 4221 4022 3773 3655 3550 3512 3525 3250 2178 1590 1348 1087 690 232 260 696 844 974 1092 1165 1194 1146 1241 1377 1556 1751
2314 2287 2283 2246 2276 2366 2435 2475 2500 2388 2270 2319 2411 2472 2483 2380 2316 2324 2314 2354 2408 2515 2516 2567 2812 2908 3138 3250 3284 3321 3410 3516 3528 3405 3274 3202 3285 3486 3649 3702 3634 3613 3651 3800 4052 4102 4106 4162 3966 3678 3587 3501 3434 3427 3285 2105 1406 1223 1005 204 0 0 0 700 875 874 868 893 1032 1210 1242 1280 1411 1639
2478 2443 2376 2376 2405 2435 2460 2465 2452 2440 2406 2370 2417 2483 2512 2423 2299 2284 2365 2425 2570 2744 2919 3100 3198 3187 3129 3138 3216 3368 3462 3494 3422 3222 3166 3279 3455 3532 3597 3509 3436 3429 3596 3869 3955 4015 4110 3901 3573 3449 3379 3323 3335 3258 1685 1317 1230 981 105 0 0 0 524 599 566 520 486 480 643 896 1160 1289 1353 1478
2203 2389 2419 2355 2354 2402 2445 2504 2540 2524 2517 2403 2355 2404 2412 2299 2131 2156 2284 2356 2496 2570 2691 2863 2974 3053 3128 3226 3285 3347 3508 3267 3012 3065 3312 3329 3331 3243 3182 3100 3066 3487 3780 3868 3888 3963 3728 3459 3316 3246 3213 3205 3086 1971 1331 1208 757 0 0 0 0 0 0 0 0 0 0 0 0 160 661 981 1189 1309
2020 2025 2274 2418 2433 2443 2929 2628 2587 2596 2579 2552 2483 2401 2354 2317 2286 2364 2493 2634 2734 2804 2877 2927 2940 2984 3031 3111 3278 3372 3058 2890 2995 3175 3199 3120 2901 2987 2987 2936 3128 3707 3840 3858 3823 3601 3394 3286 3216 3133 3087 2848 2697 1610 1062 0 0 0 0 0 0 0 0 0 0 0 0 0 0 216 582 595 707 879
2196 2192 2100 2169 3046 3174 3763 3135 2709 2702 2689 2646 2561 2489 2435 2424 2381 2319 2344 2416 2479 2538 2642 2730 2784 2920 3094 3171 3174 3077 2879 2768 2970 2974 2668 2427 2602 2899 3021 3109 3431 3706 3962 3894 3566 3341 3313 3223 3119 3026 2697 2290 1764 861 0 0 0 0 0 0 0 0 0 0 0 0 0 0 0 252 664 742 730 685
1976 2069 2204 2273 2710 3598 3827 3602 3212 2686 2584 2583 2585 2573 2543 2478 2447 2431 2430 2472 2526 2650 2762 2853 3037 3214 3282 3267 3054 2509 2140 2227 2272 2165 2230 2429 2626 2856 3024 3330 3570 3914 3881 3491 3316 3322 3216 3056 2869 2549 2078 1167 786 10 0 0 0 0 0 0 0 0 0 0 0 0 0 0 0 0 542 706 738 685
1837 1808 1840 1953 2064 2212 2656 2801 2922 3003 2814 2588 2466 2459 2522 2581 2576 2542 2492 2462 2487 2635 2777 2894 3050 3105 3072 2796 2296 1968 1794 1642 1611 1820 2059 2536 2712 2797 3017 3396 3687 3802 3624 3273 3342 3234 2969 2052 1818 1438 1194 608 137 1 0 0 0 0 0 0 0 0 0 0 0 0 0 0 0 0 0 562 582 568
1844 1829 1808 1828 1887 1930 2797 3324 2722 2620 2742 2807 2734 2542 2450 2432 2457 2534 2576 2536 2448 2455 2628 2786 2805 2634 2348 2160 2072 1952 1811 1707 1843 2154 2446 2652 2721 2818 3237 3454 3833 3870 3330 3304 3223 3088 2418 1782 1519 1320 555 180 51 32 0 0 0 0 0 0 0 0 0 0 0 0 0 0 0 0 0 0 0 0
1837 1886 1885 1887 1910 1972 2109 2265 2396 2378 2367 2404 2517 2597 2576 2483 2418 2391 2441 2447 2744 2866 2879 2820 2634 2437 2314 2246 2186 2163 2106 2135 2365 2526 2658 2712 2756 2857 3198 3644 3776 3474 3371 3345 2941 2792 2150 1669 1193 610 58 66 6 4 0 0 0 0 0 0 0 0 0 0 0 0 0 0 0 0 0 0 0 0
1758 1850 1918 1919 1925 1963 2048 2101 2132 2199 2180 2112 2014 1958 1982 1979 1973 1993 2057 2179 2301 2631 2908 2851 2738 2606 2450 2356 2358 2379 2613 2832 2901 2938 2970 2978 2959 3371 3586 3716 3613 3381 3443 3420 3096 2907 2027 1419 558 34 18 5 0 0 0 0 0 0 0 0 0 0 0 0 0 0 0 0 0 0 0 0 0 0
1780 1810 1838 1899 1948 1964 1968 2002 2070 2122 2158 2156 2114 2027 1924 1831 1756 1707 1713 1795 1924 2012 2142 2295 2369 2378 2364 2629 3021 3409 3508 3480 3385 3268 3218 3104 3148 3322 3402 3314 3361 3472 3576 3480 3232 2871 1864 827 179 58 13 0 0 0 0 0 0 0 0 0 0 0 0 0 0 0 0 0 0 0 0 0 0 0
1762 1872 1910 1916 1907 1937 1943 1927 1924 1980 2051 2076 2044 1953 1896 1906 1898 1894 1850 1803 1778 1841 2014 2146 2234 2463 2848 3598 3986 4016 3970 3898 3756 3664 3499 3296 3202 3165 3371 3480 3497 3594 3537 3438 3104 2520 1507 705 36 13 3 0 0 0 0 0 0 0 0 0 0 0 0 0 0 0 0 0 0 0 0 0 0 0
1684 1789 2502 2686 1974 1952 1958 1965 1961 1957 1976 1960 1927 1858 1764 1878 2046 2160 2238 2351 2294 2202 2195 2350 2669 3034 3686 3888 3747 3598 3520 3538 3467 3586 3520 3412 3272 3450 3572 3636 3647 3559 3496 3314 2720 1921 1178 651 128 8 0 0 0 0 0 0 0 0 0 0 0 0 0 0 0 0 0 0 0 0 0 0 0 0
1949 1884 2201 2920 2670 2140 2066 2078 2084 2086 2071 2023 1959 1895 1833 1838 2003 2227 2495 2871 3266 3398 3368 3395 3552 3785 3617 3370 3528 3506 3339 3251 3228 3344 3445 3433 3551 3739 3830 3784 3661 3462 3273 2632 2210 1546 1146 952 380 0 0 0 0 0 0 0 0 0 0 0 0 0 0 0 0 0 0 0 0 0 0 0 0 0
2183 2155 2146 2136 2326 2557 2364 2253 2243 2242 2205 2154 2091 2043 2006 2009 2062 2123 2416 2873 3160 3345 3429 3582 3562 3406 3403 3531 3612 3507 3422 3323 3189 3225 3448 3670 3812 3928 3954 3972 3730 3476 2817 2168 1826 1334 1294 1045 619 0 0 0 0 0 0 0 0 0 0 0 0 0 0 0 0 0 0 0 0 0 0 0 0 0
2288 2286 2284 2301 2374 2576 2724 2656 2533 2452 2424 2390 2345 2293 2213 2179 2158 2117 2194 2416 3846 3101 3063 3052 3295 3439 3453 3531 3674 3741 3745 3686 3637 3696 3709 3824 3993 3946 3973 3754 3228 2650 2357 1987 1719 1452 1462 1105 630 0 0 0 0 0 0 0 0 0 0 0 0 0 0 0 0 0 0 0 0 0 0 0 0 1
2282 2303 2299 2300 2280 2338 2650 3111 3182 3132 3077 3031 2944 2838 2721 2585 2484 2451 2446 2522 2744 3167 3198 3195 3221 3264 3325 3408 3453 3470 3482 3739 3848 3868 3838 3322 3179 3110 3179 2886 2784 2545 2310 1984 1847 1762 1353 1230 673 108 0 0 0 0 0 0 0 0 0 0 0 0 0 0 0 0 0 0 0 0 0 0 0 0
2172 2221 2262 2250 2247 2221 2192 2270 2441 2591 2726 2937 3110 3223 3229 3196 3164 3173 3222 3256 3243 3196 3220 3248 3252 3254 3269 3296 3337 3277 3143 3272 3186 3131 3067 3019 2956 2928 2939 2824 2704 2534 2423 2174 1888 1614 1225 957 735 45 0 0 0 0 0 0 0 0 0 0 0 0 0 0 0 0 0 0 0 0 0 0 0 0
2075 2096 2131 2181 2202 2215 2193 2145 2066 2013 1983 1960 2023 2238 2578 2812 2944 3130 3196 3202 3283 3346 3368 3362 3319 3285 3253 3220 3166 3100 3035 3038 2851 2920 2956 2867 2800 2853 2884 2867 2802 2726 2296 2224 1894 1514 1042 917 573 0 0 0 0 0 0 0 0 0 0 0 0 0 0 0 0 0 0 0 0 0 0 1 1 2
2099 2074 2069 2119 2165 2197 2219 2209 2183 2133 2081 2024 1958 1866 1790 1754 1816 2027 2491 2920 3153 3296 3375 3412 3393 3327 3290 3257 3212 3155 2883 2975 2791 2943 2933 2790 2881 2986 3015 2984 2866 2428 2269 2042 1634 1360 1121 802 231 0 0 0 0 0 0 0 0 0 0 0 0 0 0 0 0 0 0 0 0 0 0 1 2 5
2071 2026 2038 2084 2154 2196 2228 2241 2245 2268 2300 2344 2364 2370 2358 2339 2206 1995 2193 2729 3044 3228 3326 3366 3368 3339 3280 3255 3086 2627 2791 2871 2828 2799 2825 2898 3042 3066 2999 2847 2431 2142 2044 1764 1409 1133 656 254 0 0 0 0 0 0 0 0 0 0 0 0 0 0 0 0 0 0 0 0 0 0 0 0 2 6
1993 2012 2042 2081 2121 2204 2234 2279 2315 2347 2409 2439 2521 2641 2752 2872 2896 2754 2576 2645 2881 3107 3214 3264 3222 3164 3050 2848 2434 2458 2779 2830 2832 2897 3047 3119 3154 3059 2878 2560 2366 2156 1877 1428 946 500 109 0 0 0 0 0 0 0 0 0 0 0 0 0 0 0 0 0 0 0 0 0 0 0 0 0 0 2
2030 2068 2091 2116 2154 2225 2287 2328 2392 2460 2531 2555 2579 2728 2855 2930 3086 3155 3170 3195 3162 3096 3051 3059 3081 3068 2804 2287 2161 2386 2546 2726 2958 3128 3178 3101 2882 2721 2528 2375 2234 1876 1506 911 367 0 0 0 0 0 0 0 0 0 0 0 0 0 0 0 0 0 0 0 0 0 0 0 0 0 0 0 0 2
2156 2107 2086 2112 2164 2266 2340 2406 2445 2535 2670 2880 3057 3272 3394 3377 3243 3255 3404 3508 3490 3424 3306 3181 3000 2671 2232 2172 2364 2636 2791 3127 3229 2821 2938 2702 2588 2356 2235 2141 1894 1458 999 449 0 0 0 0 0 0 0 0 0 0 0 0 0 0 0 0 0 0 0 0 0 0 0 0 0 0 0 0 0 0
2478 2317 2183 2072 2082 2235 2345 2449 2539 2654 2830 2984 3152 3254 3404 3498 3567 3470 3517 3630 3656 3547 3367 3100 2810 2608 2409 2358 2488 2757 3085 3046 2866 2710 2618 2434 2123 2256 2264 1883 1314 902 670 561 253 0 0 0 0 0 0 0 0 0 0 0 0 0 0 0 0 0 0 0 0 0 0 0 0 0 0 0 0 0
2672 2624 2522 2435 2355 2322 2319 2422 2517 2560 2575 2641 2688 2774 2871 3043 3278 3551 3684 3657 3601 3410 3171 2987 2842 2668 2518 2461 2608 3014 3082 3031 2821 2557 2363 2281 2195 2073 1968 1660 1142 1052 970 675 419 0 0 0 0 0 0 0 0 0 0 0 0 0 0 0 0 0 0 0 0 0 0 0 0 0 0 0 0 0
2676 2688 2744 2723 2646 2546 2472 2428 2442 2491 2508 2495 2395 2452 2487 2647 2980 3132 3230 3240 3177 2974 2892 2808 2555 2414 2427 2566 2822 2958 2975 2847 2566 2364 2382 2270 1873 1737 1589 1415 1204 1110 916 679 422 80 0 0 0 0 0 0 0 0 0 0 0 0 0 0 0 0 0 0 0 0 0 0 0 0 0 0 0 0
2534 2550 2619 2748 2758 2681 2630 2580 2543 2507 2584 2650 2636 2585 2544 2476 2350 2416 2416 2544 2710 2678 2576 2541 2432 2309 2398 2610 2896 2983 2876 2500 2237 2050 2100 2067 1806 1543 1181 1206 1019 952 816 663 496 334 0 0 0 0 0 0 0 0 0 0 0 0 0 0 0 0 0 0 0 0 0 0 0 0 0 0 0 0
2320 2217 2304 2474 2573 2590 2530 2184 2194 2115 2178 2316 2296 2110 1895 2064 1812 1775 2012 2138 2243 2101 2209 2253 2307 2386 2499 2674 2807 2815 2489 2213 2122 2023 1912 1881 1709 1450 978 738 940 824 751 635 543 399 0 0 0 0 0 0 0 0 0 0 0 0 0 0 0 0 0 0 0 0 0 0 0 0 0 0 0 0
2255 2206 2270 2428 2248 2003 1900 1953 1895 1832 1710 1774 1671 1739 1896 2039 2160 1987 2214 2260 2028 2040 2202 2351 2420 2522 2618 2690 2664 2562 2372 2083 1822 1665 1550 1452 1500 1470 1293 943 762 724 676 634 492 350 0 0 0 0 0 0 0 0 0 0 0 0 0 0 0 0 0 0 0 0 0 0 0 0 0 0 0 0
2521 2560 2628 2569 2281 1999 2052 2050 2026 2097 2276 2148 1828 1790 1880 2176 2330 2434 2371 2362 2261 2041 2055 2210 2334 2395 2459 2501 2385 2075 1719 1542 1504 1444 1345 1242 1334 1236 1007 833 779 722 593 536 448 241 0 0 0 0 0 0 0 0 0 0 0 0 0 0 0 0 0 0 0 0 0 0 0 0 0 0 0 0
2844 2792 2734 2656 2509 2368 2390 2351 2303 2364 2428 2251 1965 1972 2500 2418 2253 2288 2454 2423 2380 2227 2107 2082 2184 2243 2270 2260 2122 1942 1809 1662 1535 1332 1239 1159 1088 1040 907 672 626 606 498 483 315 270 9 0 0 0 0 0 0 0 0 0 0 0 0 0 0 0 0 0 0 0 0 0 0 0 0 0 0 0
2916 2981 2981 2839 2757 2787 2817 2744 2716 2704 2521 2368 2334 2516 2570 2542 2544 2372 2295 2203 2165 2114 2042 2049 2092 2103 2054 1993 1918 1777 1533 1280 976 754 703 955 1196 873 659 677 560 430 373 361 336 250 0 0 0 0 0 0 0 0 0 0 0 0 0 0 0 0 0 0 0 0 0 0 0 0 0 0 0 0
2883 2917 3136 3238 3199 3142 3048 2873 2769 2693 2598 2632 2608 2598 2599 2485 2283 2042 2261 2320 2288 2100 1863 1761 1768 1790 1857 1742 1536 1337 1350 1190 1100 1051 1030 942 875 823 738 618 495 510 482 447 349 8 0 0 0 0 0 0 0 0 0 0 0 0 0 0 0 0 0 0 0 0 0 0 0 0 0 0 0 0
3184 3107 3188 3128 2680 2557 2468 2403 2363 2407 2231 2247 2476 2486 2302 2125 1634 1308 1580 1782 1868 1859 1725 1617 1599 1570 1401 1273 1239 1221 1177 1125 1036 941 735 552 525 582 684 612 570 503 436 453 355 241 0 0 0 0 0 0 0 0 0 0 0 0 0 0 0 0 0 0 0 0 0 0 0 0 0 0 0 0
3316 3201 3200 3201 3037 2674 2269 2108 2016 2094 2355 2398 2426 2392 2005 1923 1987 1796 1826 1517 1485 1396 1298 1372 1302 1194 1182 1204 1209 1174 1071 918 888 869 742 581 569 641 600 494 437 382 422 354 341 206 0 0 0 0 0 0 0 0 0 0 0 0 0 0 0 0 0 0 0 0 0 0 0 0 0 0 0 0
Wind_Speed
11 11 12 12 14 13 11 11 10 10 8 8 6 5 5 5 8 11 12 13 11 12 9 8 9 7 7 7 7 8 10 12 14 14 15 16 18 22 25 27 29 31 32 33 34 35 36 38 39 40 41 42 43 44 44 45 45 46 47 47 48 49 49 50 50 50 50 51 53 53 55 57 56 56
9 11 11 10 12 14 12 11 9 8 8 7 6 5 4 3 5 7 8 12 9 11 11 7 7 8 9 6 7 7 8 12 15 15 15 15 17 20 21 22 25 27 30 32 33 33 35 36 37 38 39 40 41 41 41 41 41 41 42 43 45 46 46 47 49 49 50 51 53 53 52 52 54 55
8 9 9 9 10 11 12 12 11 9 7 7 5 4 3 4 4 3 4 7 11 6 9 9 7 6 7 7 6 7 7 10 12 11 11 13 17 18 16 20 24 27 29 31 32 32 34 35 36 36 36 37 37 36 36 37 36 36 38 39 40 41 42 43 44 46 47 49 50 52 51 52 51 52
6 6 7 7 7 9 8 10 12 12 11 8 6 5 2 4 3 2 3 4 10 8 6 8 9 7 7 6 6 7 8 10 11 8 8 10 11 11 13 17 24 25 26 27 30 31 33 33 34 34 34 33 32 32 31 31 31 32 33 35 36 37 38 39 40 41 43 44 47 49 52 52 51 51
4 4 4 6 5 5 6 7 8 8 9 9 7 7 5 4 4 3 2 4 9 11 7 7 6 6 4 5 3 6 8 8 6 4 6 8 9 11 14 18 22 24 24 26 27 28 29 29 30 30 29 28 28 28 28 28 29 29 30 31 32 33 34 35 36 37 39 40 42 46 50 51 51 50
3 1 2 4 4 2 3 5 6 7 9 9 9 8 6 5 4 3 3 3 5 9 10 10 8 6 2 3 2 5 6 6 3 4 4 5 9 12 15 17 18 20 22 22 23 24 25 25 24 23 23 24 25 26 26 26 26 26 26 26 27 28 29 31 32 33 35 37 39 43 46 49 50 50
2 1 1 1 1 2 2 3 4 6 7 9 9 8 8 7 6 5 3 4 4 7 9 7 7 5 4 1 5 3 2 2 2 3 4 4 6 10 14 14 14 14 15 16 18 20 21 20 20 20 21 22 23 24 24 24 23 21 21 22 24 25 26 27 28 29 32 34 37 39 42 44 47 49
3 3 1 1 2 3 3 2 2 3 5 7 9 10 10 9 7 7 6 4 3 5 7 9 5 6 4 4 2 2 3 2 2 2 3 5 8 11 11 10 12 13 12 14 15 16 17 17 17 18 20 20 20 21 21 21 19 18 19 20 22 23 23 24 24 26 29 32 35 37 39 41 43 46
3 3 3 2 3 4 4 3 3 3 4 5 7 10 11 10 9 10 9 6 6 5 5 8 8 7 6 4 4 3 4 4 2 2 3 5 7 8 9 11 13 14 15 15 15 14 14 14 15 15 14 14 15 17 16 15 16 18 19 20 21 22 22 22 22 23 24 27 30 34 38 40 42 44
3 3 3 3 5 6 5 4 5 6 5 5 5 7 10 12 13 12 11 10 9 7 5 6 10 10 7 9 6 6 5 4 4 3 3 4 6 9 9 11 14 16 18 17 17 16 16 15 14 13 13 14 14 13 15 18 20 19 20 21 nan nan nan 21 21 20 20 21 24 29 34 37 40 42
4 4 4 4 6 6 6 5 6 7 7 7 6 5 7 11 14 13 12 12 11 10 8 9 9 9 10 9 8 9 10 8 6 4 4 4 7 11 14 12 14 16 18 19 19 19 19 17 18 16 14 13 13 15 22 22 21 21 22 nan nan nan 21 20 20 19 18 18 20 23 28 35 38 40
4 5 5 5 7 8 7 6 6 8 7 9 7 6 7 9 13 14 14 14 13 12 11 9 9 11 12 13 12 12 13 11 9 8 9 6 6 8 14 17 15 16 21 20 19 20 20 19 18 17 17 16 15 23 24 22 23 nan nan nan nan nan nan nan nan nan nan nan nan 21 25 31 36 39
4 5 6 6 7 8 8 8 7 8 9 10 8 6 8 8 10 12 15 15 14 14 13 11 12 12 12 12 14 13 12 11 8 11 14 10 10 11 12 14 16 20 20 21 22 20 22 21 21 22 21 20 20 26 24 nan nan nan nan nan nan nan nan nan nan nan nan nan nan 19 22 27 34 38
5 6 6 6 7 8 9 9 8 6 7 8 9 8 10 9 10 10 13 16 16 15 14 12 12 12 11 12 14 14 13 14 14 15 14 12 11 15 15 14 19 18 20 22 21 20 23 24 22 23 23 22 23 26 nan nan nan nan nan nan nan nan nan nan nan nan nan nan nan 19 21 24 30 36
4 6 7 7 6 6 7 8 9 8 7 6 7 7 8 10 12 11 12 14 17 18 15 15 16 14 11 11 16 15 14 16 15 14 15 13 15 17 19 16 15 20 23 22 22 20 22 25 24 24 24 22 23 nan nan nan nan nan nan nan nan nan nan nan nan nan nan nan nan nan 21 24 28 33
5 6 8 8 8 8 8 9 8 7 7 5 5 6 6 6 9 11 13 13 17 19 18 16 15 16 13 14 17 16 18 17 18 17 17 17 17 18 18 19 17 19 24 23 22 20 23 26 27 26 24 23 24 nan nan nan nan nan nan nan nan nan nan nan nan nan nan nan nan nan nan 23 26 30
5 6 8 9 9 8 8 8 9 10 8 6 5 4 4 4 6 7 8 11 14 19 19 17 17 17 17 17 16 20 21 23 19 19 18 18 19 21 20 19 19 19 24 24 25 24 24 26 27 25 23 24 nan nan nan nan nan nan nan nan nan nan nan nan nan nan nan nan nan nan nan nan nan nan
6 7 8 10 10 9 8 8 9 10 9 9 9 10 10 10 8 8 9 8 9 16 18 19 18 18 23 17 18 17 23 22 19 20 18 20 21 21 21 21 22 22 24 26 27 25 24 24 26 25 nan nan nan nan nan nan nan nan nan nan nan nan nan nan nan nan nan nan nan nan nan nan nan nan
9 8 9 10 10 10 10 10 10 10 9 10 10 11 13 13 13 13 14 14 15 17 18 19 19 18 21 19 17 17 22 23 21 23 22 22 23 23 25 24 24 26 26 27 29 26 26 24 25 nan nan nan nan nan nan nan nan nan nan nan nan nan nan nan nan nan nan nan nan nan nan nan nan nan
13 11 10 11 10 11 12 10 10 10 11 11 9 10 12 14 15 15 14 14 14 16 17 18 19 19 18 20 19 20 23 24 25 24 24 26 26 25 24 22 25 28 27 29 30 28 27 26 27 nan nan nan nan nan nan nan nan nan nan nan nan nan nan nan nan nan nan nan nan nan nan nan nan nan
17 14 12 13 12 12 12 10 12 11 13 14 12 13 13 15 17 15 17 16 14 13 14 16 16 15 15 16 17 19 21 24 27 28 26 22 26 24 24 24 27 28 28 28 30 30 28 27 nan nan nan nan nan nan nan nan nan nan nan nan nan nan nan nan nan nan nan nan nan nan nan nan nan nan
20 17 12 14 14 13 11 10 13 12 14 13 12 12 12 12 14 15 19 22 20 16 14 14 15 17 18 17 17 17 19 23 28 28 23 24 29 25 26 25 27 28 29 28 29 30 28 28 28 nan nan nan nan nan nan nan nan nan nan nan nan nan nan nan nan nan nan nan nan nan nan nan nan nan
21 20 16 13 13 14 11 11 14 14 16 13 12 13 13 11 12 14 21 22 21 23 23 21 22 22 20 21 22 21 19 25 27 27 24 25 27 24 25 26 28 28 28 27 29 30 26 29 27 nan nan nan nan nan nan nan nan nan nan nan nan nan nan nan nan nan nan nan nan nan nan nan nan nan
22 22 21 18 13 12 12 12 14 14 16 13 13 15 15 13 12 17 23 22 22 22 23 23 25 23 25 27 27 27 27 27 28 27 26 26 27 26 26 27 29 29 29 27 29 31 29 29 30 nan nan nan nan nan nan nan nan nan nan nan nan nan nan nan nan nan nan nan nan nan nan nan nan nan
22 23 22 22 19 16 14 14 14 15 16 13 13 15 15 15 15 25 24 21 22 23 24 26 27 26 27 28 29 28 27 27 28 28 28 27 29 30 30 31 31 30 29 29 31 34 31 30 31 nan nan nan nan nan nan nan nan nan nan nan nan nan nan nan nan nan nan nan nan nan nan nan nan nan
22 23 24 24 21 20 20 19 18 18 18 13 15 14 12 13 18 24 24 25 25 26 28 29 29 29 30 29 28 28 27 27 28 30 31 31 32 32 34 35 35 33 30 29 34 35 36 31 30 31 nan nan nan nan nan nan nan nan nan nan nan nan nan nan nan nan nan nan nan nan nan nan nan nan
22 25 26 25 21 22 21 20 20 20 18 21 17 12 14 17 19 23 27 28 28 28 28 28 27 28 28 28 26 26 27 28 31 33 34 35 36 36 36 35 35 35 33 32 32 36 36 32 30 nan nan nan nan nan nan nan nan nan nan nan nan nan nan nan nan nan nan nan nan nan nan nan nan nan
24 26 27 27 23 23 22 21 21 20 20 20 15 16 17 19 23 26 28 30 29 29 28 27 27 27 28 28 27 28 29 30 32 35 35 36 36 38 38 36 35 35 36 35 35 36 37 35 31 nan nan nan nan nan nan nan nan nan nan nan nan nan nan nan nan nan nan nan nan nan nan nan nan nan
25 24 22 24 25 26 25 24 23 23 20 17 16 17 18 22 26 27 29 29 31 29 27 26 26 26 28 28 28 29 31 33 35 36 35 36 37 38 38 37 35 35 36 35 36 36 36 36 34 nan nan nan nan nan nan nan nan nan nan nan nan nan nan nan nan nan nan nan nan nan nan nan nan nan
20 22 24 25 26 27 29 32 32 29 26 21 19 20 26 29 28 30 30 31 30 26 25 26 25 25 28 29 29 31 34 36 35 36 37 38 38 38 39 39 36 35 34 34 36 36 35 36 nan nan nan nan nan nan nan nan nan nan nan nan nan nan nan nan nan nan nan nan nan nan nan nan nan nan
26 26 28 31 31 34 34 32 31 30 29 31 32 32 31 29 29 30 30 29 27 25 25 25 25 25 27 32 33 33 33 34 35 36 38 38 37 37 38 39 38 37 34 33 33 34 35 nan nan nan nan nan nan nan nan nan nan nan nan nan nan nan nan nan nan nan nan nan nan nan nan nan nan nan
30 34 37 40 41 39 40 36 35 34 34 33 34 33 32 30 29 29 28 27 27 26 26 25 25 27 32 32 31 32 33 35 36 36 39 39 37 36 37 37 36 35 34 33 35 nan nan nan nan nan nan nan nan nan nan nan nan nan nan nan nan nan nan nan nan nan nan nan nan nan nan nan nan nan
38 40 38 36 36 36 34 34 34 36 36 35 35 35 34 33 32 31 31 29 27 26 27 23 23 27 31 31 33 34 33 34 37 37 40 38 40 36 35 37 36 36 36 35 nan nan nan nan nan nan nan nan nan nan nan nan nan nan nan nan nan nan nan nan nan nan nan nan nan nan nan nan nan nan
33 31 31 31 32 32 33 33 34 35 36 36 37 35 36 35 34 32 30 28 26 27 24 23 26 28 31 32 34 35 37 39 39 39 41 40 39 39 37 37 34 35 36 38 39 nan nan nan nan nan nan nan nan nan nan nan nan nan nan nan nan nan nan nan nan nan nan nan nan nan nan nan nan nan
29 28 28 29 30 31 32 32 34 36 36 36 37 37 37 35 34 35 33 25 23 23 23 26 29 30 32 33 36 36 37 38 37 38 38 41 41 39 38 38 37 37 38 39 38 nan nan nan nan nan nan nan nan nan nan nan nan nan nan nan nan nan nan nan nan nan nan nan nan nan nan nan nan nan
27 27 27 28 29 31 31 30 33 35 34 36 37 39 38 36 36 36 29 25 23 22 26 30 32 34 34 34 35 36 36 37 38 39 39 39 40 40 39 37 35 37 39 40 39 nan nan nan nan nan nan nan nan nan nan nan nan nan nan nan nan nan nan nan nan nan nan nan nan nan nan nan nan nan
26 28 29 30 31 32 31 32 34 34 35 36 39 40 38 38 40 35 22 21 23 24 30 35 35 34 33 34 36 37 40 41 41 42 42 43 45 46 43 40 37 38 40 40 42 43 nan nan nan nan nan nan nan nan nan nan nan nan nan nan nan nan nan nan nan nan nan nan nan nan nan nan nan nan
27 33 35 38 42 46 47 47 47 45 41 42 44 42 37 34 31 20 21 26 28 31 34 34 36 37 36 36 36 37 39 40 43 45 47 49 48 45 45 45 41 39 38 40 43 44 nan nan nan nan nan nan nan nan nan nan nan nan nan nan nan nan nan nan nan nan nan nan nan nan nan nan nan nan
35 38 41 41 38 37 35 33 33 33 33 39 41 36 28 27 24 22 27 28 32 34 35 36 37 38 39 37 36 38 40 41 42 45 46 46 46 44 42 42 43 38 38 39 43 45 nan nan nan nan nan nan nan nan nan nan nan nan nan nan nan nan nan nan nan nan nan nan nan nan nan nan nan nan
30 33 35 34 30 29 30 33 35 37 36 37 38 32 26 23 26 28 30 31 34 36 37 37 38 40 41 42 42 43 43 43 42 40 40 40 42 43 41 41 43 43 40 41 44 44 nan nan nan nan nan nan nan nan nan nan nan nan nan nan nan nan nan nan nan nan nan nan nan nan nan nan nan nan
29 31 33 32 30 31 34 36 37 36 36 38 37 31 27 27 29 32 35 37 36 37 38 37 39 40 42 43 44 46 45 42 41 40 39 40 42 41 40 41 42 44 44 41 42 42 nan nan nan nan nan nan nan nan nan nan nan nan nan nan nan nan nan nan nan nan nan nan nan nan nan nan nan nan
31 33 35 35 33 35 39 38 39 38 37 37 36 34 32 32 34 38 39 40 39 38 40 41 42 44 45 45 46 48 47 44 43 43 42 42 42 40 40 41 41 43 45 43 41 40 nan nan nan nan nan nan nan nan nan nan nan nan nan nan nan nan nan nan nan nan nan nan nan nan nan nan nan nan
36 37 39 36 36 41 40 37 35 35 37 38 39 37 36 38 39 39 39 40 39 41 42 42 43 46 48 50 49 49 48 45 43 43 42 42 43 42 42 41 41 43 43 41 42 nan nan nan nan nan nan nan nan nan nan nan nan nan nan nan nan nan nan nan nan nan nan nan nan nan nan nan nan nan
40 43 43 41 43 43 39 34 33 35 37 39 41 40 41 43 43 41 40 41 42 43 45 46 47 49 51 52 52 50 48 46 46 46 45 43 42 41 41 42 44 45 45 44 42 43 nan nan nan nan nan nan nan nan nan nan nan nan nan nan nan nan nan nan nan nan nan nan nan nan nan nan nan nan
38 39 42 44 45 44 42 41 41 41 43 45 46 45 44 45 47 48 47 47 48 49 51 50 50 51 52 53 54 53 50 49 50 49 48 46 45 45 45 46 47 47 46 45 47 47 nan nan nan nan nan nan nan nan nan nan nan nan nan nan nan nan nan nan nan nan nan nan nan nan nan nan nan nan
Wind_Direction
111 118 119 113 114 112 105 112 116 121 128 110 103 95 97 98 126 123 126 120 121 127 126 118 108 104 120 110 74 59 62 73 75 64 54 49 45 46 45 42 43 45 45 43 41 38 37 37 37 37 38 38 36 36 35 33 32 31 31 31 30 30 28 25 26 24 23 19 18 18 18 17 16 16
111 117 126 126 122 123 123 110 119 129 124 125 111 103 111 119 121 105 118 121 116 126 136 113 107 121 128 119 110 86 76 65 63 57 50 43 42 51 50 46 44 42 41 41 39 36 36 35 35 36 36 37 36 36 35 34 33 32 32 32 31 30 29 27 23 23 22 20 17 17 17 15 15 15
109 115 120 129 129 131 130 133 135 134 131 115 136 149 159 128 140 102 128 144 138 139 138 137 117 117 123 111 99 101 84 70 68 61 48 37 44 52 44 50 49 43 37 35 35 35 35 35 34 34 34 35 35 34 34 33 32 32 32 33 32 30 28 27 23 21 21 19 16 15 14 17 17 15
105 107 114 126 131 139 145 146 149 150 150 158 159 164 156 142 138 173 156 129 124 143 140 138 138 124 113 110 109 96 74 65 71 50 39 39 48 36 29 43 47 43 38 35 32 32 33 33 32 32 33 32 32 32 33 33 32 31 32 32 31 29 27 25 22 20 20 19 16 13 13 16 15 15
104 93 104 116 124 148 156 157 165 169 166 171 166 169 179 166 182 204 180 136 132 156 165 158 152 160 158 131 60 71 74 85 95 79 40 30 23 22 25 30 36 36 35 32 31 31 32 31 29 29 28 27 28 30 30 30 29 29 30 31 29 26 24 22 20 19 19 18 15 13 12 14 13 12
87 74 81 106 119 157 156 166 173 183 185 191 185 182 191 173 176 190 218 132 163 149 179 177 179 170 167 106 88 65 96 110 117 100 74 29 3 16 26 28 21 26 27 29 28 27 28 30 29 26 24 24 24 26 27 26 25 25 26 26 25 23 21 19 16 16 17 16 14 13 13 13 13 11
69 64 11 64 130 199 190 166 173 201 201 203 202 192 203 196 184 208 214 217 166 154 165 191 192 199 195 39 108 121 111 106 74 78 74 32 15 19 26 24 9 15 25 25 24 26 27 25 22 20 19 17 18 19 21 22 21 20 20 20 20 18 17 16 15 14 15 14 13 13 12 12 12 11
40 44 27 30 311 265 267 251 238 222 220 213 208 206 210 212 203 212 229 222 206 192 181 198 219 207 209 175 157 152 174 143 114 36 41 17 11 17 20 7 352 355 14 22 23 22 20 17 11 7 7 9 11 14 16 15 10 9 12 14 13 10 9 8 10 11 11 10 9 9 10 10 11 11
7 16 20 9 293 279 280 261 268 268 254 232 223 216 215 219 212 218 231 232 232 217 189 196 217 225 224 222 204 213 199 191 222 279 346 8 7 1 354 344 342 347 360 6 6 1 2 4 357 357 1 5 10 11 2 348 348 352 355 358 0 360 359 0 3 6 4 3 3 3 4 7 9 10
333 346 3 334 299 289 295 289 277 273 277 260 249 229 220 224 225 224 222 230 235 237 215 216 204 227 222 214 220 228 235 215 220 255 311 332 337 325 320 322 325 324 325 331 337 340 347 350 354 360 4 8 7 355 333 331 326 332 343 348 nan nan nan 354 355 356 354 351 352 356 359 2 5 7
315 323 324 313 304 303 300 293 289 285 277 277 274 269 245 234 232 228 230 236 238 241 230 222 233 220 227 241 210 228 247 251 270 272 256 289 311 306 310 312 316 320 323 329 340 343 345 350 351 357 5 0 355 334 323 318 326 338 340 nan nan nan 324 323 324 328 333 339 343 348 354 358 1 3
317 317 311 306 300 305 303 299 287 285 287 280 278 279 267 249 239 231 230 232 234 232 232 230 220 234 227 230 238 236 238 238 244 271 285 284 277 281 299 311 318 320 320 323 326 331 334 340 344 347 346 338 333 318 322 324 332 nan nan nan nan nan nan nan nan nan nan nan nan 344 349 354 357 359
310 306 304 300 297 300 320 334 318 298 293 286 290 283 278 267 257 242 237 239 240 237 236 225 233 229 222 226 230 225 236 245 252 263 267 271 282 289 285 296 312 321 319 320 321 329 329 335 338 337 337 338 335 322 320 nan nan nan nan nan nan nan nan nan nan nan nan nan nan 341 346 350 354 356
291 303 303 304 335 337 335 332 336 334 325 319 305 298 287 284 275 261 247 243 245 246 242 238 239 234 230 229 241 245 250 254 253 252 258 264 266 272 277 294 311 316 313 316 317 325 326 326 333 327 330 338 333 329 nan nan nan nan nan nan nan nan nan nan nan nan nan nan nan 334 340 347 351 355
293 289 297 296 313 325 321 318 337 338 340 332 337 344 327 304 293 278 264 251 251 253 252 249 250 252 242 237 249 251 245 255 259 258 262 271 272 277 281 288 295 306 306 309 312 318 319 319 322 326 329 333 330 nan nan nan nan nan nan nan nan nan nan nan nan nan nan nan nan nan 334 341 349 353
284 288 289 290 289 290 297 299 297 314 338 349 344 339 341 331 320 306 287 267 256 255 254 253 256 256 255 247 251 249 253 251 254 264 271 278 279 278 282 292 298 306 298 300 306 316 315 314 316 321 328 330 328 nan nan nan nan nan nan nan nan nan nan nan nan nan nan nan nan nan nan 333 341 347
285 276 277 280 284 288 326 315 300 295 296 317 346 335 327 323 315 306 308 297 277 266 262 260 255 264 258 254 256 265 263 263 262 259 262 271 275 283 287 293 297 294 293 296 306 313 314 310 313 316 326 326 nan nan nan nan nan nan nan nan nan nan nan nan nan nan nan nan nan nan nan nan nan nan
277 279 273 275 277 283 291 296 301 296 297 290 276 271 272 274 282 304 308 297 280 268 268 266 263 260 267 264 261 263 267 266 267 269 271 274 277 281 289 292 295 293 289 302 305 307 310 307 310 313 nan nan nan nan nan nan nan nan nan nan nan nan nan nan nan nan nan nan nan nan nan nan nan nan
272 275 273 271 275 278 282 286 299 295 295 288 281 273 269 271 273 278 282 285 281 275 269 267 266 262 266 268 265 263 269 275 274 275 278 279 280 281 282 285 293 294 292 297 301 305 310 308 306 nan nan nan nan nan nan nan nan nan nan nan nan nan nan nan nan nan nan nan nan nan nan nan nan nan
258 268 276 272 270 271 274 289 316 306 285 281 282 279 270 266 267 269 281 294 292 288 282 275 269 267 270 274 274 270 266 272 274 275 273 273 277 276 278 285 286 292 293 291 297 303 307 309 308 nan nan nan nan nan nan nan nan nan nan nan nan nan nan nan nan nan nan nan nan nan nan nan nan nan
254 262 273 275 270 269 269 283 296 300 292 273 278 275 272 270 266 264 268 285 299 301 296 287 280 274 270 268 267 266 271 275 274 274 271 278 281 284 284 285 286 289 290 290 295 301 304 306 nan nan nan nan nan nan nan nan nan nan nan nan nan nan nan nan nan nan nan nan nan nan nan nan nan nan
251 259 284 283 275 272 270 287 294 300 287 274 275 273 270 269 267 263 264 267 276 293 294 282 267 256 255 261 264 270 279 287 283 285 290 286 283 289 290 288 287 288 287 291 294 295 301 304 304 nan nan nan nan nan nan nan nan nan nan nan nan nan nan nan nan nan nan nan nan nan nan nan nan nan
251 254 262 284 287 277 278 289 292 300 289 276 275 275 271 272 271 268 266 269 269 272 273 272 270 263 266 270 273 275 287 293 295 294 295 288 290 290 289 289 286 283 287 290 290 292 295 296 299 nan nan nan nan nan nan nan nan nan nan nan nan nan nan nan nan nan nan nan nan nan nan nan nan nan
246 250 253 263 279 290 290 289 291 294 297 281 269 267 271 273 272 265 264 269 273 271 275 272 272 272 269 269 271 273 276 285 292 295 293 292 293 294 293 293 294 292 290 287 289 290 295 297 299 nan nan nan nan nan nan nan nan nan nan nan nan nan nan nan nan nan nan nan nan nan nan nan nan nan
242 248 252 254 265 276 281 283 286 288 291 289 266 265 267 274 268 262 266 268 275 270 270 271 272 270 265 268 271 275 277 280 284 289 293 296 297 297 297 295 294 290 288 288 291 287 293 295 296 nan nan nan nan nan nan nan nan nan nan nan nan nan nan nan nan nan nan nan nan nan nan nan nan nan
239 245 249 250 259 272 275 276 277 278 278 286 261 258 268 264 263 263 264 265 265 265 267 270 270 268 266 266 270 273 277 281 282 284 288 290 292 295 295 297 294 290 289 290 290 289 291 290 295 297 nan nan nan nan nan nan nan nan nan nan nan nan nan nan nan nan nan nan nan nan nan nan nan nan
241 244 246 248 254 263 270 272 272 269 268 259 257 261 254 253 259 260 260 262 265 265 268 270 271 270 270 272 275 278 279 281 280 280 282 285 287 288 288 288 289 290 290 289 286 289 289 292 295 nan nan nan nan nan nan nan nan nan nan nan nan nan nan nan nan nan nan nan nan nan nan nan nan nan
244 246 248 250 256 262 266 267 267 267 265 258 257 254 256 258 258 258 261 264 268 269 270 271 272 273 277 280 280 280 286 289 286 286 287 288 289 289 288 285 281 282 284 285 286 287 289 291 294 nan nan nan nan nan nan nan nan nan nan nan nan nan nan nan nan nan nan nan nan nan nan nan nan nan
248 252 259 259 259 260 263 265 262 256 257 261 253 255 258 260 258 261 264 267 269 271 274 277 278 278 282 285 284 284 285 286 285 286 286 287 286 285 283 281 281 282 283 284 285 287 288 289 291 nan nan nan nan nan nan nan nan nan nan nan nan nan nan nan nan nan nan nan nan nan nan nan nan nan
261 260 260 260 258 257 257 255 253 251 251 254 255 251 253 256 260 263 266 268 273 276 278 281 282 280 279 280 284 284 286 289 290 288 287 287 286 285 285 281 276 277 278 282 285 287 286 286 nan nan nan nan nan nan nan nan nan nan nan nan nan nan nan nan nan nan nan nan nan nan nan nan nan nan
248 251 253 252 253 251 258 262 259 255 251 249 248 252 256 258 260 264 269 274 278 279 277 276 276 275 276 275 277 281 285 286 284 284 284 284 284 282 281 281 281 280 276 278 282 285 285 nan nan nan nan nan nan nan nan nan nan nan nan nan nan nan nan nan nan nan nan nan nan nan nan nan nan nan
247 247 246 244 245 251 253 256 255 254 254 255 255 256 258 259 261 265 269 269 267 269 270 269 268 268 270 273 276 276 278 280 280 280 281 282 282 281 281 278 281 282 281 281 280 nan nan nan nan nan nan nan nan nan nan nan nan nan nan nan nan nan nan nan nan nan nan nan nan nan nan nan nan nan
247 247 250 250 252 253 256 256 256 255 256 256 257 259 261 261 263 266 269 272 272 271 271 273 274 273 273 274 275 277 279 279 277 276 278 279 280 274 271 278 284 286 288 288 nan nan nan nan nan nan nan nan nan nan nan nan nan nan nan nan nan nan nan nan nan nan nan nan nan nan nan nan nan nan
255 255 254 254 254 253 254 255 255 257 258 259 260 261 262 264 265 270 273 274 273 272 273 272 271 271 272 273 276 278 276 273 275 277 278 277 274 272 275 279 283 283 288 290 290 nan nan nan nan nan nan nan nan nan nan nan nan nan nan nan nan nan nan nan nan nan nan nan nan nan nan nan nan nan
258 256 254 251 250 250 249 251 254 257 259 260 262 264 265 267 269 265 261 269 275 277 273 263 260 260 266 267 269 273 276 278 278 275 270 270 272 276 279 281 283 282 285 287 289 nan nan nan nan nan nan nan nan nan nan nan nan nan nan nan nan nan nan nan nan nan nan nan nan nan nan nan nan nan
260 257 254 250 250 250 249 250 253 256 259 261 263 265 266 267 267 264 257 253 259 270 279 278 275 274 278 278 278 280 285 289 291 291 288 282 278 272 270 274 281 283 285 287 289 nan nan nan nan nan nan nan nan nan nan nan nan nan nan nan nan nan nan nan nan nan nan nan nan nan nan nan nan nan
255 252 251 249 248 248 247 247 247 249 252 256 257 258 260 260 256 262 282 297 288 279 276 277 280 284 288 286 283 285 288 290 292 291 289 282 277 274 273 273 277 281 285 286 287 288 nan nan nan nan nan nan nan nan nan nan nan nan nan nan nan nan nan nan nan nan nan nan nan nan nan nan nan nan
250 245 243 241 236 233 231 230 231 234 235 239 245 249 250 261 273 293 289 282 280 273 276 281 285 290 293 292 291 292 294 296 298 299 294 289 287 289 288 286 284 283 284 284 285 288 nan nan nan nan nan nan nan nan nan nan nan nan nan nan nan nan nan nan nan nan nan nan nan nan nan nan nan nan
254 254 255 255 255 255 256 259 262 264 263 257 255 262 267 275 289 288 274 277 280 285 287 289 289 290 290 291 293 296 299 301 303 304 302 297 294 292 292 291 288 283 281 283 283 283 nan nan nan nan nan nan nan nan nan nan nan nan nan nan nan nan nan nan nan nan nan nan nan nan nan nan nan nan
263 265 267 269 269 265 261 258 258 256 257 262 271 280 286 286 287 290 290 287 288 289 291 294 295 294 296 299 299 300 303 307 309 307 305 301 299 295 292 289 289 287 284 284 285 286 nan nan nan nan nan nan nan nan nan nan nan nan nan nan nan nan nan nan nan nan nan nan nan nan nan nan nan nan
263 261 262 264 258 253 253 253 254 255 257 262 273 286 293 288 286 287 287 288 288 289 290 291 293 296 297 297 299 302 307 310 309 306 304 304 303 299 295 289 287 287 288 287 287 287 nan nan nan nan nan nan nan nan nan nan nan nan nan nan nan nan nan nan nan nan nan nan nan nan nan nan nan nan
259 257 257 258 256 254 254 252 252 254 257 263 270 279 282 281 275 279 286 290 288 287 289 290 292 295 296 298 299 302 305 306 305 303 305 304 304 302 297 289 289 288 288 288 289 291 nan nan nan nan nan nan nan nan nan nan nan nan nan nan nan nan nan nan nan nan nan nan nan nan nan nan nan nan
255 256 257 259 260 260 263 264 262 262 261 262 266 273 278 276 276 282 283 286 286 287 289 290 289 290 291 291 294 297 299 300 299 299 301 301 302 301 295 291 289 286 286 285 283 nan nan nan nan nan nan nan nan nan nan nan nan nan nan nan nan nan nan nan nan nan nan nan nan nan nan nan nan nan
253 253 253 254 257 261 265 266 266 267 269 269 273 276 274 275 278 280 279 279 280 281 282 284 286 287 288 289 290 290 292 294 294 293 293 294 293 292 291 287 283 281 282 282 280 280 nan nan nan nan nan nan nan nan nan nan nan nan nan nan nan nan nan nan nan nan nan nan nan nan nan nan nan nan
256 255 255 255 258 260 262 263 264 264 263 264 268 272 271 272 276 278 276 275 275 279 282 284 286 287 288 289 290 291 291 291 290 289 288 286 284 282 282 283 282 280 280 281 284 282 nan nan nan nan nan nan nan nan nan nan nan nan nan nan nan nan nan nan nan nan nan nan nan nan nan nan nan nan